Wind_Speed
85 86 87 86 84 84 84 82 82 85 89 92 92 91 86 81 78 73 68 71 69 59 56 56 55 54 51 46 45 43 39 38 37 35 33 32 33 33 31 29 26 25 23 21 18 15 13 11 11 11 11 10 10 8 4 2 1 1 1 2 3 4 5
85 87 87 86 85 84 84 83 84 87 91 92 92 91 89 84 81 76 71 73 72 62 57 58 58 57 54 50 48 45 41 39 37 35 34 35 36 35 33 32 29 27 25 23 21 18 16 15 14 14 14 13 12 11 8 5 3 3 2 2 3 3 4
84 86 87 87 86 85 85 86 87 88 90 91 91 90 90 87 84 81 76 75 73 66 60 61 62 60 56 52 49 43 41 40 35 33 37 39 39 38 36 34 32 29 27 25 23 21 19 18 16 16 16 15 14 13 11 9 7 6 5 4 4 4 4
83 85 87 88 87 87 87 88 88 87 87 90 92 91 91 91 89 86 82 78 76 71 65 63 63 62 58 54 49 42 42 43 38 35 39 41 41 41 39 36 34 31 29 28 26 24 22 20 19 18 17 17 16 15 14 13 11 10 10 9 8 7 5
82 84 87 88 88 89 89 88 87 86 86 88 91 92 91 91 91 90 86 82 80 78 73 67 64 63 60 57 52 46 45 47 45 43 42 42 43 43 41 38 35 33 32 31 29 27 25 24 23 21 20 19 18 17 16 15 14 14 13 13 12 11 8
82 84 86 88 90 91 91 90 88 87 87 87 89 90 91 90 91 91 89 86 85 83 79 73 67 64 63 61 58 54 51 49 49 50 48 45 44 44 42 40 37 34 33 32 31 29 28 27 26 25 22 20 19 19 18 16 15 15 15 15 14 13 12
82 84 86 88 90 92 92 91 90 88 88 87 87 89 90 91 91 91 91 90 88 86 83 78 71 67 66 65 64 62 58 53 50 51 52 49 47 45 43 41 38 35 34 33 33 32 31 31 30 28 25 21 20 20 20 19 17 16 16 15 13 12 13
83 84 86 88 90 91 91 91 91 89 88 88 88 88 91 92 93 92 92 91 90 88 86 83 77 72 69 68 68 66 64 58 53 51 52 52 50 48 46 43 40 38 36 36 36 36 35 34 32 31 27 24 23 23 23 22 20 18 17 14 12 12 12
84 84 85 87 89 90 91 91 91 90 89 89 89 89 90 92 92 92 91 91 92 91 89 86 82 77 74 72 71 69 66 62 57 54 53 54 52 50 48 45 42 41 40 39 38 38 38 37 36 35 32 28 25 25 27 26 23 21 19 16 13 12 11
84 84 84 85 86 87 89 90 91 91 90 90 90 90 90 90 91 92 91 91 92 92 90 88 85 82 79 77 75 74 70 66 61 56 54 55 54 51 49 46 44 42 42 41 39 38 39 40 40 40 38 34 30 30 31 29 27 24 23 20 17 14 12
85 84 84 84 84 85 87 88 90 91 92 91 91 91 90 89 90 91 92 92 93 93 91 89 87 86 85 82 79 78 75 71 66 60 56 56 56 53 50 49 47 46 45 42 40 39 40 41 43 44 42 38 34 33 34 32 30 28 26 25 22 18 16
85 85 85 84 84 85 86 88 90 92 93 93 92 91 91 90 89 89 91 93 94 94 93 91 89 88 88 87 84 81 78 75 72 66 59 57 58 58 54 51 50 51 50 45 42 42 42 42 45 46 45 42 38 35 33 32 32 31 29 27 26 23 20
86 86 85 85 84 85 86 88 90 92 93 94 94 93 92 92 90 89 90 92 94 96 96 94 91 90 90 90 88 85 81 79 77 72 63 58 59 61 58 54 53 54 55 51 47 45 44 46 48 47 44 43 41 37 35 34 35 35 33 29 27 26 25
87 86 85 85 85 85 86 88 90 92 93 95 95 94 94 93 92 91 91 91 92 96 97 95 93 91 90 91 91 89 86 82 80 76 67 60 60 61 60 59 56 55 56 55 53 50 47 48 51 50 46 44 42 39 37 37 37 38 36 32 30 30 32
88 87 86 86 85 85 86 87 89 91 93 95 95 95 95 94 94 94 93 92 92 94 96 96 95 93 92 92 93 94 91 87 84 80 73 66 62 62 63 62 60 59 57 56 56 55 52 51 51 49 48 47 45 43 42 41 40 38 36 34 33 34 36
90 88 87 86 86 86 86 87 89 91 93 95 96 96 97 96 96 96 95 95 94 94 94 96 97 96 95 95 94 95 95 92 89 86 81 74 68 65 66 65 65 65 61 57 56 54 52 56 57 52 51 50 48 47 47 46 44 42 38 36 35 34 35
91 90 88 88 87 87 87 88 89 91 93 95 96 97 98 98 98 97 97 97 97 96 95 95 97 98 99 99 97 96 94 94 93 90 88 84 78 72 70 69 69 69 65 60 60 56 53 58 62 59 57 55 52 51 51 50 51 48 43 40 39 36 35
91 90 90 90 88 88 89 89 89 90 92 94 95 97 98 99 99 99 99 98 97 97 96 96 97 99 100 101 100 98 95 94 95 95 93 92 89 83 78 74 72 73 72 70 70 66 60 59 63 64 61 59 56 55 55 55 56 54 49 46 45 43 40
91 91 91 90 89 90 90 90 89 90 91 93 95 97 98 99 100 100 100 100 99 98 98 98 98 99 101 101 99 99 98 96 97 98 97 96 95 93 88 81 75 74 77 78 78 76 70 64 63 64 63 62 60 57 58 60 60 58 56 52 49 49 46
91 92 91 91 91 91 91 90 90 90 91 92 94 96 98 99 100 101 101 102 101 100 99 99 100 100 100 99 98 99 100 100 100 100 101 100 99 98 96 92 87 81 80 81 81 81 78 71 67 65 63 64 64 60 60 63 63 61 59 55 52 51 49
91 92 92 92 92 92 91 91 91 91 91 92 94 96 98 100 101 102 103 103 103 102 102 101 101 101 99 98 99 100 102 103 104 103 104 104 103 102 101 100 98 94 89 87 86 84 82 79 76 71 67 65 66 65 63 64 64 64 61 56 53 52 51
90 92 93 93 92 93 92 92 92 92 93 94 95 96 97 99 101 102 103 104 104 104 104 104 103 101 99 98 98 100 102 105 106 107 107 108 107 107 106 104 104 102 99 95 92 89 87 85 83 79 74 70 68 68 68 67 67 67 65 61 56 54 54
89 91 92 92 92 93 93 93 93 94 94 95 96 96 96 98 100 102 103 104 105 105 106 106 105 103 100 99 99 100 102 105 107 109 110 111 111 111 110 109 108 107 105 103 100 97 93 91 88 85 82 78 74 72 72 72 72 71 70 68 64 61 59
86 89 91 92 93 94 94 94 94 94 95 96 96 96 97 98 100 102 104 105 106 107 107 107 106 104 102 101 100 101 102 104 106 108 110 112 114 113 113 113 111 110 109 108 106 105 102 99 95 92 89 86 83 80 78 78 78 78 77 75 74 71 68
84 86 89 91 93 95 95 95 96 96 97 97 96 96 98 100 102 104 105 106 107 108 108 108 107 106 105 104 103 104 104 104 104 106 108 111 113 114 114 114 113 113 112 110 109 108 107 105 103 101 98 95 92 90 87 84 83 83 82 81 80 80 78
82 84 87 89 92 94 95 96 97 98 98 98 98 98 100 101 103 104 105 107 108 109 109 108 108 109 109 108 107 107 107 105 104 104 105 107 109 112 113 114 114 113 113 112 111 110 109 108 107 105 104 102 101 99 96 93 89 86 84 82 81 82 83
81 82 85 87 90 92 94 95 96 97 98 99 99 100 101 102 103 105 105 106 108 108 109 109 109 110 111 110 110 109 109 108 106 104 104 105 106 108 110 112 113 113 113 113 112 111 110 110 108 107 105 105 104 103 103 101 97 92 88 85 83 83 85
81 82 83 85 88 91 93 94 96 96 98 99 99 99 101 102 103 104 105 106 107 108 109 110 110 110 110 110 110 110 110 109 107 106 107 107 107 108 109 110 111 112 112 112 112 111 110 110 109 108 107 106 105 105 105 104 103 100 96 92 89 86 86
81 83 84 85 86 89 91 93 96 96 97 98 99 99 101 102 103 105 105 106 107 108 108 109 110 109 109 110 110 111 111 110 110 111 114 113 111 110 110 109 109 110 110 111 111 111 111 111 110 110 109 108 108 107 107 106 106 105 104 101 98 94 90
76 80 84 86 86 87 89 92 94 96 97 98 98 99 100 102 103 104 105 106 106 106 107 108 109 109 110 111 112 112 113 113 113 115 118 117 116 114 112 110 110 110 110 110 111 111 112 112 112 112 111 110 110 109 109 108 108 108 107 107 105 103 100
68 73 79 84 86 87 88 89 91 93 95 96 97 98 99 101 102 103 103 104 105 105 105 106 107 108 109 112 114 114 115 115 114 116 118 119 119 118 117 115 114 113 112 112 111 111 111 112 112 112 112 112 111 111 110 110 109 109 108 108 108 107 106
60 65 71 77 82 86 88 89 89 90 92 93 95 96 98 100 101 101 102 102 103 103 101 99 101 105 108 110 113 115 116 116 116 116 118 120 120 120 120 119 119 117 116 115 114 113 112 112 112 112 112 112 112 112 112 112 111 111 110 110 109 109 108
55 59 64 70 75 80 85 88 90 91 91 91 92 93 95 97 99 101 101 101 102 102 100 97 100 106 109 110 112 113 114 115 116 115 116 119 122 124 123 123 122 121 120 119 117 116 115 114 113 113 112 112 112 112 113 113 113 112 112 111 111 110 110
51 55 59 64 69 73 78 83 88 91 92 93 92 92 93 94 96 98 100 101 101 102 103 104 106 110 112 113 113 114 114 114 114 115 117 121 124 126 126 126 125 125 124 122 120 119 118 116 115 114 114 113 113 112 112 113 113 113 113 113 112 112 111
47 51 55 59 63 68 72 77 81 86 90 92 94 94 94 94 94 96 98 100 101 101 103 105 107 110 112 113 114 115 116 116 115 115 118 121 124 126 126 127 127 127 126 124 123 122 121 120 118 117 116 115 114 113 113 113 113 113 113 113 113 113 113
42 46 50 55 59 63 66 70 75 79 84 88 91 94 95 95 95 95 96 98 99 101 102 104 106 108 110 112 112 113 115 116 117 117 118 120 122 124 125 126 127 127 127 125 124 124 123 122 121 120 119 118 117 116 115 115 114 114 114 113 113 113 113
41 43 45 49 53 57 61 65 69 72 76 80 84 88 92 94 96 97 97 97 98 100 102 103 105 107 108 110 111 112 113 114 116 117 118 118 120 122 124 124 125 126 126 126 126 126 125 124 123 122 122 121 120 119 119 118 117 116 115 115 114 114 114
Wind_Direction
212 211 210 209 208 208 208 207 206 206 207 208 209 208 206 204 204 206 206 206 206 205 204 206 208 205 201 203 208 209 213 219 223 223 221 221 222 224 223 217 214 216 216 214 214 217 222 225 223 219 217 225 239 241 232 226 251 294 337 358 13 14 13
213 212 211 210 209 209 209 208 208 208 208 209 210 209 208 206 205 205 206 208 209 206 205 207 209 206 202 203 208 211 214 217 221 223 223 222 222 222 220 216 214 216 216 216 216 217 220 225 226 222 218 218 230 239 238 237 255 272 295 317 333 345 346
213 212 211 210 209 209 209 210 210 209 209 209 210 210 209 208 208 206 206 209 210 207 206 207 210 210 206 204 206 210 214 214 214 219 223 222 221 221 219 215 214 215 216 217 219 220 221 225 228 226 222 219 224 234 239 241 250 265 273 275 281 290 300
214 213 212 210 210 210 210 211 211 211 210 210 210 210 210 209 209 208 207 208 210 209 208 208 209 212 211 207 204 205 209 208 206 211 220 221 221 220 219 217 215 215 217 218 220 223 224 228 233 233 228 223 222 228 235 237 242 252 259 260 257 256 262
215 214 213 211 210 211 211 211 212 212 212 212 212 211 211 210 210 210 208 208 210 212 211 209 208 210 212 209 204 202 205 205 204 209 215 218 220 220 219 219 218 216 217 219 220 222 225 230 235 236 232 228 226 229 234 237 239 244 250 254 258 261 261
215 215 213 212 211 211 211 211 211 212 212 213 213 213 212 212 211 211 210 209 211 214 214 212 209 209 210 209 204 202 205 207 208 214 219 219 220 221 219 220 220 219 218 220 221 221 224 229 233 236 236 233 231 233 237 240 239 242 246 252 260 269 275
216 215 214 213 212 212 212 211 211 212 212 213 214 213 213 214 213 213 212 211 212 215 216 214 212 210 210 209 205 204 208 210 210 215 221 223 223 222 220 217 218 220 221 222 221 220 220 223 229 234 236 236 235 235 235 237 237 235 239 247 256 265 273
217 216 215 215 213 212 212 212 212 212 213 213 214 213 213 214 214 214 213 213 214 216 217 216 214 212 212 211 208 207 209 211 211 212 217 221 223 222 219 217 217 220 224 225 224 223 221 221 225 228 232 235 238 238 235 235 236 233 233 240 250 257 263
218 217 216 216 214 213 213 213 213 213 213 214 214 214 214 214 215 215 215 214 215 217 217 217 216 214 213 212 211 210 210 210 212 214 215 216 220 222 221 220 221 224 226 228 229 229 227 226 226 229 232 234 237 238 237 237 239 236 234 238 246 253 257
219 218 218 217 216 215 214 214 214 214 214 214 214 215 215 215 215 216 216 216 217 218 219 219 218 216 216 214 213 212 211 211 212 215 216 216 217 220 221 222 222 224 225 227 230 233 234 232 232 234 236 235 234 236 237 239 243 243 242 242 243 245 252
219 219 219 218 217 216 215 215 215 215 215 215 215 215 215 216 215 216 217 217 218 219 219 219 218 217 217 217 216 215 213 212 213 215 217 218 217 219 221 223 223 223 224 224 228 233 234 233 234 235 236 235 233 235 238 239 242 245 245 246 244 240 245
219 220 219 218 217 216 215 215 215 216 216 216 216 216 215 216 216 216 217 218 219 220 220 220 219 218 218 218 218 218 216 214 214 215 217 219 218 218 221 225 225 224 224 222 223 229 233 233 234 234 234 234 233 234 237 240 240 240 241 243 243 241 246
220 220 220 219 218 217 216 216 216 216 216 216 216 216 216 216 216 217 217 218 220 221 221 221 220 218 218 218 219 220 219 217 216 216 216 217 217 216 218 222 222 223 224 222 219 223 229 232 233 232 232 233 232 232 235 239 240 239 239 239 239 244 251
219 220 221 220 220 219 217 217 216 216 217 217 217 217 216 216 216 216 217 218 220 221 221 222 222 220 219 219 219 220 221 220 219 218 215 214 213 213 214 216 218 221 225 223 221 221 223 227 231 232 232 231 230 230 232 235 236 236 238 237 234 238 245
219 220 221 221 221 220 219 218 217 217 217 217 217 217 217 217 217 217 217 218 219 221 221 222 223 222 222 221 220 221 221 222 222 220 216 212 211 212 213 213 215 220 224 224 223 223 222 224 228 231 230 229 227 226 227 228 229 230 231 230 227 229 234
220 220 220 221 222 222 221 219 218 218 218 218 218 218 217 217 218 218 218 218 219 220 220 221 222 223 223 222 222 221 221 222 223 223 220 215 212 213 214 213 214 218 222 223 222 222 223 224 225 227 226 224 223 223 224 225 226 225 223 221 220 221 226
220 220 220 221 222 222 222 221 219 219 219 218 219 219 218 218 218 219 219 219 219 220 220 220 222 223 223 224 223 222 222 222 223 224 224 221 217 214 214 215 215 216 218 219 219 219 221 223 223 223 223 223 222 223 224 224 225 224 219 214 214 215 219
221 221 221 222 222 223 223 222 221 220 220 219 219 220 219 218 219 219 220 220 220 221 221 221 221 222 223 224 224 224 223 222 223 224 225 225 222 219 217 217 217 219 220 221 222 221 222 223 222 221 221 221 222 224 224 223 224 224 220 215 215 218 219
221 221 222 222 222 223 224 223 222 222 221 220 220 220 220 220 219 220 220 221 221 221 222 222 222 222 223 224 225 225 225 224 223 224 225 226 226 223 220 218 219 221 222 224 226 225 224 223 221 219 218 219 220 222 223 223 223 224 223 221 221 223 225
221 221 221 221 222 223 224 224 224 223 223 222 222 221 221 220 220 220 221 222 222 222 222 223 224 224 223 223 224 225 226 226 225 225 225 227 227 227 225 222 221 222 222 223 226 227 226 223 220 217 217 217 217 218 219 221 222 223 223 224 224 225 227
220 221 221 221 221 222 223 224 224 224 224 223 223 222 222 221 221 221 221 222 222 223 223 224 225 225 224 224 224 224 225 226 226 226 226 227 228 228 228 226 225 224 224 224 225 227 227 225 222 220 219 218 217 217 217 218 220 221 221 223 224 225 228
221 221 222 222 222 222 223 224 224 225 224 224 223 223 223 223 223 222 222 222 223 223 223 224 225 225 225 225 225 226 226 227 227 227 227 227 228 228 229 229 228 227 226 226 226 227 227 226 225 224 222 220 219 219 219 219 219 220 221 222 224 227 230
221 222 222 222 222 223 223 223 224 225 225 225 224 223 223 223 224 224 224 223 223 224 224 225 225 225 225 226 226 227 228 228 228 228 228 228 229 229 229 230 230 230 230 229 228 228 227 227 227 228 227 226 225 225 224 223 223 222 224 226 228 229 231
222 222 222 222 222 223 223 223 224 224 225 226 225 224 224 223 224 225 225 225 224 224 224 225 226 226 226 226 227 228 229 230 229 229 229 229 230 230 230 231 231 232 232 232 231 231 230 230 230 230 231 231 232 232 231 230 230 229 230 232 234 234 232
222 223 223 222 223 223 223 223 223 224 225 225 225 225 225 224 224 224 225 225 225 225 225 225 226 226 226 226 227 228 229 231 231 231 231 231 232 232 232 233 233 234 234 235 235 234 234 234 233 233 234 234 235 236 236 236 235 235 236 237 238 238 236
222 223 224 224 224 224 224 224 224 224 224 224 225 225 226 225 225 225 225 225 226 226 226 226 226 226 226 226 227 228 229 230 231 232 233 233 234 234 234 234 235 235 236 236 236 237 237 237 236 236 236 236 237 238 239 239 238 237 237 238 238 239 239
223 224 224 225 225 225 224 224 225 225 225 225 224 225 226 226 226 226 226 226 226 226 227 227 227 227 227 226 227 229 229 230 231 232 234 234 235 235 235 235 235 236 237 237 238 238 238 238 238 238 238 238 238 238 239 239 239 238 237 237 238 238 239
224 225 225 225 226 226 226 225 225 225 226 226 225 225 226 227 227 227 227 227 227 227 227 228 228 228 228 228 228 229 230 230 231 233 234 234 234 235 235 235 235 236 237 237 238 238 239 239 239 239 239 239 239 239 239 239 239 239 237 237 237 238 239
226 226 226 226 227 227 228 227 226 225 225 226 226 226 226 227 228 228 228 227 227 227 227 228 229 229 229 230 230 230 231 231 231 232 233 233 233 234 234 235 236 236 237 237 238 238 238 239 239 239 239 239 239 239 240 240 240 240 239 238 238 239 239
227 227 228 228 228 228 229 229 229 228 226 226 226 227 227 227 228 228 229 229 228 228 229 229 229 229 230 230 230 230 231 231 231 233 234 234 234 234 234 235 235 236 237 237 237 238 238 238 239 239 240 240 240 240 240 241 241 241 241 241 241 241 241
227 227 228 229 230 230 231 231 232 231 230 228 227 227 228 228 228 229 229 230 230 229 230 230 230 230 231 232 231 231 231 231 232 233 235 236 235 236 236 235 235 236 236 237 238 238 238 238 239 239 240 240 240 241 241 241 241 242 242 242 242 242 242
227 227 227 229 230 231 232 232 233 234 233 232 230 229 229 229 229 229 229 230 231 230 230 231 232 232 232 233 233 233 232 232 232 234 235 237 237 237 237 237 236 236 236 237 237 238 238 239 239 239 240 240 240 241 241 241 242 242 242 242 243 243 243
227 227 228 228 229 230 231 232 233 234 234 235 234 232 231 230 230 230 230 230 230 230 230 230 231 231 231 231 232 233 233 233 233 234 235 237 237 237 237 237 237 237 237 237 237 238 238 239 240 240 240 240 241 241 241 242 242 243 243 243 243 243 244
227 227 228 229 229 229 230 231 232 233 233 234 235 235 233 232 231 231 230 230 230 230 230 230 231 231 231 231 231 232 233 233 234 235 235 236 237 237 237 237 237 237 237 237 238 238 239 239 240 240 241 241 241 241 242 242 243 243 243 244 244 244 244
228 227 227 228 229 230 231 231 231 232 233 233 234 234 235 234 233 232 231 231 230 230 230 231 232 233 233 233 232 232 233 233 234 235 236 237 238 238 238 238 238 239 239 239 239 239 240 240 241 242 242 242 242 243 243 243 243 244 244 244 245 245 245
231 230 229 229 230 231 231 232 233 233 233 233 234 234 234 234 234 233 232 231 231 230 230 231 232 233 234 234 234 234 234 234 234 235 236 238 239 239 239 239 240 240 240 240 240 240 240 241 241 242 243 243 243 244 244 244 244 244 244 245 245 245 246
233 233 232 232 232 232 232 233 234 234 234 235 235 235 235 235 235 234 233 232 231 231 231 231 232 233 234 234 234 234 234 235 235 235 236 238 239 240 240 240 240 241 241 241 241 241 240 240 241 241 242 243 244 244 244 245 245 245 245 245 245 246 246
Height
10823 10829 10836 10845 10853 10860 10867 10875 10883 10887 10888 10889 10894 10903 10913 10921 10928 10935 10941 10944 10949 10955 10961 10964 10967 10970 10972 10975 10978 10981 10984 10987 10990 10994 10997 10999 11000 11003 11005 11008 11009 11010 11011 11012 11013 11015 11017 11019 11021 11023 11025 11025 11026 11026 11027 11027 11028 11029 11029 11030 11030 11030 11030
10814 10822 10831 10839 10848 10855 10862 10869 10873 10873 10876 10883 10891 10901 10910 10918 10925 10932 10937 10941 10948 10955 10959 10961 10962 10965 10967 10971 10974 10978 10982 10985 10988 10991 10994 10995 10997 11000 11002 11005 11006 11007 11009 11010 11012 11013 11015 11017 11019 11021 11023 11024 11024 11024 11026 11027 11027 11028 11029 11030 11031 11031 11030
10807 10816 10824 10833 10842 10849 10855 10859 10861 10864 10872 10881 10888 10897 10906 10913 10920 10926 10931 10936 10944 10952 10955 10956 10957 10960 10964 10968 10972 10976 10980 10983 10986 10989 10989 10991 10994 10997 10999 11001 11002 11004 11006 11008 11010 11012 11013 11015 11017 11019 11020 11022 11023 11023 11024 11026 11026 11027 11028 11029 11029 11030 11030
10802 10810 10818 10827 10836 10842 10846 10850 10855 10863 10870 10875 10881 10889 10897 10904 10912 10918 10924 10931 10940 10945 10947 10949 10952 10958 10963 10966 10970 10975 10978 10979 10982 10984 10985 10987 10991 10993 10996 10999 11000 11001 11004 11005 11007 11010 11012 11014 11016 11017 11018 11020 11021 11022 11023 11024 11025 11025 11026 11026 11027 11027 11028
10796 10803 10811 10820 10828 10832 10836 10843 10852 10861 10867 10872 10878 10884 10891 10899 10906 10911 10918 10927 10933 10936 10938 10942 10948 10954 10959 10963 10966 10971 10974 10974 10976 10979 10982 10985 10987 10990 10994 10997 10998 11000 11002 11003 11005 11007 11010 11012 11014 11015 11016 11018 11019 11020 11021 11022 11023 11023 11023 11024 11024 11025 11026
10790 10795 10803 10811 10817 10822 10828 10837 10845 10852 10859 10866 10874 10881 10889 10896 10901 10907 10914 10921 10924 10927 10931 10937 10944 10950 10954 10957 10961 10965 10968 10970 10972 10975 10978 10981 10984 10987 10991 10995 10996 10998 10999 11002 11004 11006 11008 11010 11012 11013 11015 11016 11018 11019 11020 11021 11022 11022 11022 11022 11022 11023 11024
10781 10788 10795 10802 10808 10815 10823 10831 10838 10845 10852 10859 10866 10876 10883 10889 10894 10901 10908 10914 10918 10922 10926 10932 10939 10944 10947 10951 10955 10958 10963 10966 10969 10972 10975 10978 10981 10984 10988 10991 10993 10994 10996 10999 11001 11003 11006 11008 11009 11011 11013 11015 11016 11017 11018 11019 11020 11020 11020 11021 11022 11022 11023
10773 10780 10787 10793 10801 10809 10817 10825 10832 10840 10847 10853 10860 10867 10873 10878 10886 10893 10900 10907 10912 10915 10919 10925 10932 10937 10941 10945 10949 10952 10956 10961 10964 10967 10969 10973 10977 10980 10983 10986 10988 10990 10991 10994 10997 11000 11003 11005 11008 11009 11011 11012 11014 11015 11016 11017 11018 11019 11019 11020 11021 11022 11022
10765 10772 10779 10786 10795 10804 10812 10819 10828 10835 10841 10847 10853 10859 10865 10872 10881 10888 10895 10902 10905 10907 10912 10918 10924 10929 10933 10938 10942 10945 10950 10955 10958 10961 10963 10967 10972 10976 10980 10982 10984 10986 10988 10990 10993 10997 11000 11003 11005 11005 11006 11008 11011 11012 11013 11014 11016 11018 11018 11019 11020 11021 11022
10759 10767 10774 10782 10791 10801 10809 10817 10824 10829 10834 10840 10846 10852 10860 10868 10876 10882 10890 10896 10898 10901 10907 10913 10918 10922 10925 10929 10933 10937 10942 10947 10951 10955 10958 10962 10967 10972 10975 10978 10980 10982 10983 10986 10990 10994 10997 11000 11000 11000 11001 11004 11007 11009 11011 11012 11015 11016 11017 11018 11019 11020 11021
10754 10761 10768 10776 10785 10795 10803 10810 10816 10821 10827 10833 10839 10846 10855 10862 10868 10875 10881 10886 10889 10893 10898 10904 10910 10914 10917 10921 10925 10928 10935 10940 10944 10948 10952 10956 10962 10966 10969 10971 10974 10976 10979 10983 10987 10989 10992 10994 10994 10994 10996 11000 11003 11006 11008 11011 11013 11013 11014 11015 11017 11019 11020
10747 10754 10760 10768 10776 10785 10792 10799 10806 10812 10818 10825 10831 10839 10847 10853 10860 10868 10874 10878 10880 10883 10888 10894 10900 10905 10909 10913 10917 10921 10927 10933 10937 10942 10946 10951 10957 10960 10963 10966 10969 10972 10975 10980 10984 10985 10987 10989 10987 10988 10992 10996 11000 11003 11006 11009 11009 11009 11010 11013 11015 11016 11017
10741 10747 10753 10761 10768 10776 10784 10790 10796 10802 10809 10815 10822 10830 10837 10845 10853 10859 10864 10869 10872 10874 10879 10885 10892 10897 10902 10906 10911 10915 10920 10926 10930 10936 10941 10946 10950 10954 10957 10960 10963 10965 10969 10974 10979 10981 10983 10983 10981 10983 10988 10991 10995 11000 11003 11005 11005 11005 11007 11011 11014 11014 11013
10735 10741 10747 10754 10760 10768 10776 10782 10788 10794 10799 10806 10813 10820 10828 10836 10843 10848 10854 10859 10863 10866 10872 10879 10885 10891 10896 10900 10904 10907 10912 10918 10923 10930 10936 10941 10944 10947 10951 10954 10957 10960 10963 10967 10972 10975 10977 10976 10973 10977 10983 10986 10990 10996 10999 10999 11000 11001 11004 11009 11012 11012 11009
10728 10734 10741 10747 10753 10760 10767 10774 10781 10786 10791 10797 10804 10812 10819 10827 10833 10838 10843 10849 10852 10857 10865 10871 10877 10883 10887 10890 10894 10897 10902 10909 10916 10923 10930 10934 10938 10941 10944 10947 10951 10953 10955 10959 10963 10967 10971 10971 10969 10972 10976 10979 10985 10990 10992 10993 10995 10997 11001 11004 11007 11006 11004
10720 10726 10733 10739 10745 10752 10758 10765 10771 10777 10783 10789 10795 10802 10810 10816 10822 10828 10834 10838 10842 10847 10854 10861 10867 10871 10874 10877 10882 10887 10894 10901 10908 10915 10921 10927 10931 10934 10936 10939 10942 10943 10946 10951 10955 10959 10964 10965 10965 10967 10969 10972 10978 10982 10985 10988 10990 10993 10996 10999 11000 11000 11001
10713 10720 10726 10730 10736 10742 10748 10754 10761 10767 10773 10780 10787 10793 10800 10807 10813 10819 10824 10829 10833 10838 10845 10851 10856 10860 10863 10866 10871 10878 10887 10895 10902 10908 10913 10918 10922 10926 10928 10930 10932 10934 10939 10942 10944 10949 10955 10957 10958 10960 10962 10965 10971 10975 10978 10982 10984 10987 10991 10993 10994 10994 10997
10706 10713 10718 10723 10729 10734 10738 10745 10753 10760 10765 10773 10779 10784 10791 10799 10805 10810 10815 10821 10827 10833 10838 10842 10846 10849 10852 10856 10863 10873 10881 10888 10893 10898 10902 10906 10911 10916 10920 10922 10924 10927 10930 10932 10934 10940 10946 10949 10951 10953 10956 10959 10964 10968 10972 10975 10977 10980 10984 10986 10987 10988 10992
10698 10703 10710 10717 10722 10724 10729 10738 10746 10752 10758 10765 10771 10776 10783 10791 10797 10802 10808 10813 10818 10824 10828 10831 10833 10836 10841 10850 10860 10869 10874 10878 10882 10887 10891 10894 10899 10905 10910 10914 10918 10919 10920 10922 10925 10930 10936 10941 10945 10948 10950 10953 10957 10961 10965 10967 10970 10974 10978 10980 10981 10983 10986
10689 10694 10700 10707 10712 10716 10723 10731 10737 10743 10750 10756 10761 10767 10774 10781 10786 10793 10798 10803 10808 10814 10818 10822 10824 10827 10835 10846 10855 10860 10863 10866 10871 10876 10880 10883 10888 10893 10898 10903 10907 10908 10909 10912 10915 10919 10926 10933 10938 10942 10944 10946 10949 10954 10957 10960 10963 10967 10971 10974 10976 10977 10980
10680 10685 10690 10697 10703 10709 10716 10722 10727 10733 10740 10746 10751 10757 10763 10769 10775 10782 10787 10793 10799 10804 10809 10812 10814 10819 10830 10840 10845 10847 10849 10852 10857 10863 10867 10871 10876 10879 10884 10890 10894 10897 10899 10903 10905 10909 10917 10924 10930 10934 10937 10939 10943 10947 10950 10952 10956 10959 10963 10967 10969 10970 10973
10671 10676 10681 10688 10696 10702 10707 10713 10718 10723 10729 10734 10741 10747 10754 10761 10767 10772 10778 10784 10790 10794 10798 10802 10805 10813 10825 10833 10835 10837 10839 10840 10845 10850 10854 10858 10862 10866 10871 10876 10880 10885 10889 10893 10896 10900 10907 10914 10920 10925 10929 10932 10936 10940 10943 10946 10949 10952 10955 10959 10961 10964 10967
10662 10667 10672 10680 10687 10692 10699 10704 10708 10713 10717 10723 10730 10738 10745 10752 10758 10762 10767 10774 10779 10784 10789 10792 10797 10806 10817 10822 10825 10827 10827 10829 10833 10838 10842 10846 10850 10855 10860 10864 10868 10873 10878 10883 10887 10892 10897 10903 10909 10916 10921 10925 10929 10933 10936 10940 10943 10945 10948 10951 10954 10958 10961
10653 10658 10664 10672 10677 10680 10687 10693 10698 10703 10707 10712 10720 10729 10735 10741 10746 10749 10754 10760 10766 10772 10777 10782 10789 10799 10808 10813 10817 10818 10818 10818 10823 10828 10832 10836 10840 10845 10851 10855 10859 10863 10868 10873 10878 10883 10889 10895 10901 10907 10912 10917 10921 10925 10929 10933 10936 10938 10941 10944 10947 10951 10955
10645 10649 10655 10662 10666 10670 10676 10682 10686 10691 10696 10702 10711 10717 10721 10726 10731 10734 10740 10747 10753 10760 10765 10771 10780 10788 10795 10801 10804 10804 10805 10809 10814 10819 10824 10828 10833 10838 10843 10848 10852 10856 10859 10863 10868 10873 10879 10885 10892 10898 10904 10908 10913 10917 10920 10924 10927 10930 10933 10936 10939 10942 10946
10637 10641 10646 10652 10656 10660 10667 10671 10675 10680 10685 10691 10699 10704 10708 10714 10718 10723 10729 10735 10741 10748 10755 10761 10769 10773 10779 10787 10790 10790 10793 10800 10804 10808 10814 10819 10824 10829 10834 10839 10843 10847 10851 10854 10859 10864 10869 10875 10881 10888 10894 10899 10904 10908 10911 10914 10918 10921 10924 10927 10930 10933 10937
10629 10633 10637 10641 10645 10650 10656 10661 10666 10671 10675 10681 10689 10693 10697 10702 10708 10713 10719 10725 10731 10738 10744 10751 10756 10760 10766 10775 10780 10781 10785 10791 10795 10800 10805 10808 10811 10815 10821 10826 10830 10835 10840 10844 10849 10855 10860 10865 10871 10876 10882 10887 10892 10897 10900 10904 10907 10911 10914 10918 10921 10924 10927
10621 10625 10628 10632 10636 10640 10645 10650 10655 10660 10665 10672 10680 10684 10687 10692 10697 10702 10709 10715 10721 10728 10734 10740 10745 10751 10759 10767 10771 10774 10777 10783 10789 10792 10790 10790 10794 10799 10805 10811 10816 10822 10828 10833 10839 10844 10849 10854 10859 10864 10870 10874 10879 10883 10888 10892 10896 10900 10904 10908 10911 10915 10918
10613 10617 10620 10624 10628 10631 10636 10639 10644 10650 10655 10661 10669 10674 10678 10682 10686 10692 10698 10704 10710 10717 10724 10730 10737 10744 10750 10755 10759 10763 10767 10772 10776 10773 10767 10769 10777 10784 10791 10798 10804 10810 10816 10821 10827 10832 10836 10841 10846 10851 10856 10861 10865 10870 10874 10879 10884 10889 10893 10897 10901 10905 10909
10605 10609 10613 10616 10620 10623 10627 10630 10635 10640 10646 10651 10658 10663 10668 10672 10676 10682 10688 10694 10702 10709 10716 10721 10727 10733 10736 10739 10743 10747 10751 10756 10760 10757 10753 10759 10767 10772 10779 10786 10792 10797 10802 10808 10813 10818 10823 10828 10833 10838 10843 10847 10852 10857 10862 10867 10872 10877 10882 10886 10891 10894 10898
10597 10601 10605 10609 10612 10617 10621 10624 10627 10631 10637 10642 10649 10653 10658 10662 10667 10673 10680 10686 10693 10700 10707 10713 10719 10724 10726 10726 10729 10733 10738 10743 10746 10745 10744 10749 10756 10761 10767 10774 10778 10783 10788 10793 10799 10804 10810 10815 10821 10826 10831 10836 10840 10845 10849 10854 10859 10864 10869 10874 10878 10882 10886
10588 10593 10596 10600 10604 10608 10612 10616 10620 10623 10627 10633 10639 10644 10648 10652 10657 10664 10672 10678 10684 10692 10702 10708 10711 10712 10713 10713 10715 10721 10726 10730 10733 10734 10735 10739 10744 10749 10754 10759 10764 10769 10774 10779 10785 10791 10796 10802 10808 10813 10818 10823 10827 10832 10836 10840 10845 10850 10855 10860 10864 10869 10872
10581 10584 10587 10590 10594 10598 10602 10606 10609 10613 10617 10622 10627 10633 10638 10643 10647 10654 10661 10668 10674 10682 10689 10691 10689 10687 10689 10693 10699 10706 10711 10716 10721 10724 10726 10725 10726 10729 10736 10742 10748 10754 10760 10766 10772 10778 10783 10789 10794 10799 10805 10810 10815 10819 10823 10827 10831 10835 10840 10845 10850 10855 10859
10574 10577 10579 10581 10584 10587 10590 10594 10597 10601 10606 10610 10615 10620 10626 10631 10636 10642 10649 10656 10663 10667 10670 10670 10669 10668 10671 10678 10684 10690 10696 10702 10708 10710 10708 10703 10703 10710 10719 10726 10731 10737 10746 10754 10761 10767 10772 10776 10781 10786 10791 10797 10802 10807 10811 10815 10818 10822 10826 10831 10836 10840 10845
10566 10569 10571 10573 10575 10578 10580 10583 10587 10590 10594 10598 10602 10607 10611 10617 10623 10629 10635 10642 10648 10653 10656 10658 10659 10659 10662 10668 10674 10678 10683 10688 10692 10693 10689 10687 10689 10699 10708 10713 10718 10726 10735 10744 10751 10757 10761 10765 10770 10774 10779 10785 10790 10794 10798 10802 10805 10809 10813 10817 10822 10826 10830
10560 10562 10564 10566 10569 10571 10573 10575 10577 10580 10583 10587 10590 10595 10599 10603 10608 10614 10620 10627 10633 10639 10643 10645 10647 10649 10652 10657 10663 10668 10671 10675 10678 10679 10678 10678 10681 10688 10696 10702 10708 10715 10723 10731 10737 10743 10748 10753 10758 10762 10767 10772 10776 10780 10784 10787 10791 10795 10799 10804 10808 10812 10816
10555 10556 10558 10560 10562 10563 10565 10567 10569 10572 10575 10578 10581 10585 10588 10591 10596 10600 10606 10612 10618 10623 10628 10631 10634 10637 10641 10645 10650 10655 10659 10662 10665 10666 10668 10670 10672 10674 10681 10689 10696 10701 10707 10714 10720 10726 10731 10737 10743 10748 10752 10757 10761 10764 10768 10772 10776 10780 10785 10789 10794 10798 10801